Weather in Tenga

Russia / Altai Republic     50°50′16″N   85°39′07″E
temp.,
°C
wind,
m/s
gust,
m/s
humid.,
%
clouds,
%
prec.,
mm/h
press.,
hPa
HPBL,
m
25 may, wed
wed2501:00+12ese1179100 0.0 101410
04:00+11sse0079100 0.0 101310
07:00+14e116813 0.0 101352
10:00+21ne11489 0.0 1011529
13:00+25nne2234100 0.0 10091550
16:00+26n1329100 0.0 10082092
19:00+20nw355194 0.1 1010321
22:00+13ene1190100 0.1 101414
26 may, thu
thu2601:00+12wsw019099 0.1 101210
04:00+12ssw118398 0.0 101213
07:00+14s117585 0.1 101262
10:00+20n115625 1.2 1010634
13:00+25n1239100 1.9 10092413
16:00+19sse446126 1.3 1009561
19:00+13sw2398100 22.6 1013110
22:00+12wsw1191100 1.0 101221
27 may, fri
fri2701:00+11sw1189100 1.0 101112
04:00+10sw1188100 0.0 101011
07:00+12wsw118363 0.0 101069
10:00+17nw12673 0.8 1008394
13:00+20wnw34535 1.9 10071773
16:00+18nnw465833 0.3 1008909
19:00+18nnw35558 0.7 10081660
22:00+11nnw11820 0.0 101110
28 may, sat
sat2801:00+9sw11890 0.0 101212
04:00+8sw11915 0.0 101212
07:00+11se118033 0.0 101269
10:00+17ene1146100 0.0 1010626
13:00+21nne12305 0.0 10091345
16:00+23nnw13295 0.0 10082137
19:00+21ne234228 0.0 1008716
22:00+13se016571 0.0 101111
29 may, sun
sun2901:00+11ssw1176100 0.0 101210
04:00+11ssw0079100 0.0 101110
07:00+12wnw018186 0.0 101293
10:00+16nne1165100 0.3 1010658
13:00+18wnw1260100 1.4 10101012
16:00+15wsw1178100 0.9 101119
19:00+13nne0187100 2.1 101219
22:00+11ne1292100 0.1 101287